TimeCET,TemperatureF,Dew PointF,Humidity,Sea Level PressureIn,VisibilityMPH,Wind Direction,Wind SpeedMPH,Gust SpeedMPH,PrecipitationIn,Events,Conditions,WindDirDegrees,DateUTC
12:20 AM,42.8,37.4,81,30.24,5.0,North,3.5,-,N/A,,Unknown,350,2011-11-18 23:20:00
12:50 AM,42.8,37.4,81,30.24,5.0,NNW,3.5,-,N/A,,Unknown,340,2011-11-18 23:50:00
1:00 AM,43,38,74,30.26,5,NNW,4.6,,,,,330,2011-11-19 00:00:00
1:20 AM,42.8,37.4,81,30.24,5.0,NNW,3.5,-,N/A,,Unknown,330,2011-11-19 00:20:00
1:50 AM,41.0,35.6,81,30.24,5.0,NNW,3.5,-,N/A,,Unknown,340,2011-11-19 00:50:00
2:20 AM,42.8,37.4,81,30.24,5.0,North,3.5,-,N/A,,Unknown,360,2011-11-19 01:20:00
2:50 AM,42.8,37.4,81,30.24,5.0,North,4.6,-,N/A,,Unknown,360,2011-11-19 01:50:00
3:20 AM,42.8,37.4,81,30.21,5.0,NNW,3.5,-,N/A,,Unknown,340,2011-11-19 02:20:00
3:50 AM,42.8,37.4,81,30.21,5.0,North,3.5,-,N/A,,Unknown,360,2011-11-19 02:50:00
4:00 AM,43,38,76,30.24,5,North,3.5,,,,,350,2011-11-19 03:00:00
4:20 AM,41.0,37.4,87,30.21,5.0,North,3.5,-,N/A,,Unknown,360,2011-11-19 03:20:00
4:50 AM,41.0,37.4,87,30.21,5.0,North,4.6,-,N/A,,Unknown,360,2011-11-19 03:50:00
5:20 AM,41.0,35.6,81,30.21,5.0,NNW,3.5,-,N/A,,Unknown,340,2011-11-19 04:20:00
5:50 AM,37.4,33.8,87,30.21,5.0,NW,4.6,-,N/A,,Unknown,320,2011-11-19 04:50:00
6:20 AM,39.2,35.6,87,30.24,5.0,NW,4.6,-,N/A,,Unknown,320,2011-11-19 05:20:00
6:50 AM,41.0,35.6,81,30.24,5.0,North,3.5,-,N/A,,Unknown,350,2011-11-19 05:50:00
7:00 AM,42,37,78,30.27,5,North,3.5,,,,,0,2011-11-19 06:00:00
7:20 AM,42.8,39.2,87,30.24,-9999.0,NNE,5.8,-,N/A,,Clear,20,2011-11-19 06:20:00
7:50 AM,42.8,37.4,81,30.24,-9999.0,North,4.6,-,N/A,,Clear,10,2011-11-19 06:50:00
8:20 AM,44.6,39.2,81,30.24,-9999.0,North,4.6,-,N/A,,Clear,360,2011-11-19 07:20:00
8:50 AM,48.2,39.2,71,30.24,-9999.0,North,4.6,-,N/A,,Clear,10,2011-11-19 07:50:00
9:20 AM,50.0,39.2,66,30.24,-9999.0,North,4.6,-,N/A,,Clear,360,2011-11-19 08:20:00
9:50 AM,53.6,41.0,62,30.24,-9999.0,NNE,5.8,-,N/A,,Clear,30,2011-11-19 08:50:00
10:00 AM,54,41,51,30.27,5,North,4.6,,,,,10,2011-11-19 09:00:00
10:20 AM,55.4,41.0,58,30.24,-9999.0,NNE,4.6,-,N/A,,Clear,30,2011-11-19 09:20:00
10:50 AM,57.2,41.0,55,30.24,-9999.0,Variable,2.3,-,N/A,,Clear,0,2011-11-19 09:50:00
11:20 AM,59.0,39.2,48,30.24,-9999.0,North,3.5,-,N/A,,Clear,350,2011-11-19 10:20:00
11:50 AM,60.8,41.0,48,30.21,-9999.0,Variable,2.3,-,N/A,,Clear,0,2011-11-19 10:50:00
12:20 PM,60.8,44.6,55,30.21,-9999.0,SSW,4.6,-,N/A,,Clear,210,2011-11-19 11:20:00
12:50 PM,60.8,42.8,52,30.21,-9999.0,SW,4.6,-,N/A,,Clear,230,2011-11-19 11:50:00
1:00 PM,62,44,39,30.21,5,SSW,4.6,,,,,200,2011-11-19 12:00:00
1:20 PM,60.8,42.8,52,30.18,-9999.0,South,3.5,-,N/A,,Clear,190,2011-11-19 12:20:00
1:50 PM,60.8,42.8,52,30.18,-9999.0,Variable,3.5,-,N/A,,Clear,0,2011-11-19 12:50:00
2:20 PM,60.8,42.8,52,30.18,-9999.0,SW,4.6,-,N/A,,Clear,220,2011-11-19 13:20:00
2:50 PM,59.0,41.0,51,30.18,-9999.0,SSW,3.5,-,N/A,,Clear,210,2011-11-19 13:50:00
3:20 PM,59.0,41.0,51,30.18,-9999.0,Variable,2.3,-,N/A,,Clear,0,2011-11-19 14:20:00
3:50 PM,57.2,42.8,59,30.18,-9999.0,South,3.5,-,N/A,,Clear,190,2011-11-19 14:50:00
4:00 PM,58,43,46,30.21,19,South,3.5,,,,Clear,190,2011-11-19 15:00:00
4:20 PM,57.2,42.8,59,30.18,-9999.0,South,2.3,-,N/A,,Clear,190,2011-11-19 15:20:00
4:50 PM,55.4,42.8,63,30.18,-9999.0,Calm,Calm,-,N/A,,Clear,0,2011-11-19 15:50:00
5:20 PM,53.6,42.8,67,30.21,-9999.0,Variable,1.2,-,N/A,,Clear,0,2011-11-19 16:20:00
5:50 PM,53.6,42.8,67,30.21,-9999.0,Variable,1.2,-,N/A,,Clear,0,2011-11-19 16:50:00
6:20 PM,53.6,41.0,62,30.21,-9999.0,Variable,2.3,-,N/A,,Clear,0,2011-11-19 17:20:00
6:50 PM,51.8,42.8,71,30.21,5.0,Variable,2.3,-,N/A,,Unknown,0,2011-11-19 17:50:00
7:20 PM,48.2,41.0,76,30.21,5.0,Variable,1.2,-,N/A,,Unknown,0,2011-11-19 18:20:00
7:50 PM,50.0,42.8,76,30.21,5.0,NNE,3.5,-,N/A,,Unknown,20,2011-11-19 18:50:00
8:20 PM,48.2,42.8,82,30.21,5.0,North,3.5,-,N/A,,Unknown,10,2011-11-19 19:20:00
8:50 PM,50.0,41.0,71,30.21,5.0,North,3.5,-,N/A,,Unknown,360,2011-11-19 19:50:00
9:20 PM,46.4,41.0,81,30.21,3.7,NNW,3.5,-,N/A,,Unknown,330,2011-11-19 20:20:00
9:50 PM,48.2,41.0,76,30.21,3.7,NNW,2.3,-,N/A,,Unknown,330,2011-11-19 20:50:00
10:00 PM,51,41,60,30.24,4,NNW,3.5,,,,Mist,340,2011-11-19 21:00:00
10:20 PM,46.4,39.2,76,30.21,3.7,NNW,3.5,-,N/A,,Unknown,340,2011-11-19 21:20:00
10:50 PM,46.4,37.4,71,30.21,3.7,NW,3.5,-,N/A,,Unknown,310,2011-11-19 21:50:00
11:20 PM,48.2,41.0,76,30.21,3.7,NNE,3.5,-,N/A,,Unknown,20,2011-11-19 22:20:00
11:50 PM,44.6,37.4,76,30.21,3.7,North,3.5,-,N/A,,Unknown,350,2011-11-19 22:50:00